TimeAKDT,TemperatureF,Dew PointF,Humidity,Sea Level PressureIn,VisibilityMPH,Wind Direction,Wind SpeedMPH,Gust SpeedMPH,PrecipitationIn,Events,Conditions,WindDirDegrees,DateUTC
12:53 AM,55.9,51.1,84,30.19,10.0,Calm,Calm,-,0.00,,Overcast,0,2013-09-06 08:53:00
1:53 AM,55.0,51.1,86,30.19,10.0,Calm,Calm,-,N/A,,Overcast,0,2013-09-06 09:53:00
2:37 AM,55.4,51.8,88,30.20,10.0,Variable,3.5,-,N/A,,Overcast,0,2013-09-06 10:37:00
2:53 AM,55.0,52.0,89,30.19,10.0,Calm,Calm,-,N/A,,Overcast,0,2013-09-06 10:53:00
3:09 AM,55.4,51.8,88,30.18,8.0,NNE,4.6,-,0.00,Rain,Light Rain,30,2013-09-06 11:09:00
3:53 AM,55.0,52.0,89,30.19,10.0,Calm,Calm,-,0.01,,Overcast,0,2013-09-06 11:53:00
4:53 AM,54.0,52.0,93,30.19,10.0,Calm,Calm,-,N/A,,Overcast,0,2013-09-06 12:53:00
5:23 AM,53.6,51.8,94,30.19,4.0,Calm,Calm,-,N/A,,Overcast,0,2013-09-06 13:23:00
5:35 AM,53.6,51.8,94,30.19,1.8,Calm,Calm,-,N/A,,Overcast,0,2013-09-06 13:35:00
5:42 AM,53.6,51.8,94,30.20,1.2,Calm,Calm,-,N/A,,Overcast,0,2013-09-06 13:42:00
5:47 AM,53.6,51.8,94,30.20,2.0,Calm,Calm,-,N/A,,Overcast,0,2013-09-06 13:47:00
5:53 AM,54.0,52.0,93,30.19,3.0,Calm,Calm,-,N/A,,Overcast,0,2013-09-06 13:53:00
6:24 AM,53.6,51.8,94,30.19,2.5,Calm,Calm,-,N/A,,Overcast,0,2013-09-06 14:24:00
6:32 AM,53.6,51.8,94,30.18,5.0,Calm,Calm,-,N/A,,Overcast,0,2013-09-06 14:32:00
6:45 AM,51.8,51.8,100,30.18,1.8,Calm,Calm,-,N/A,,Overcast,0,2013-09-06 14:45:00
6:53 AM,51.1,50.0,96,30.19,1.0,Calm,Calm,-,N/A,,Overcast,0,2013-09-06 14:53:00
7:03 AM,51.8,51.8,100,30.18,2.0,Calm,Calm,-,N/A,,Overcast,0,2013-09-06 15:03:00
7:11 AM,53.6,51.8,94,30.18,6.0,Calm,Calm,-,N/A,,Overcast,0,2013-09-06 15:11:00
7:53 AM,55.0,52.0,89,30.19,10.0,Calm,Calm,-,N/A,,Overcast,0,2013-09-06 15:53:00
8:08 AM,53.6,51.8,94,30.19,1.2,Calm,Calm,-,N/A,,Overcast,0,2013-09-06 16:08:00
8:18 AM,53.6,51.8,94,30.19,2.0,Calm,Calm,-,N/A,,Overcast,0,2013-09-06 16:18:00
8:25 AM,53.6,51.8,94,30.19,7.0,SSW,3.5,-,N/A,,Overcast,200,2013-09-06 16:25:00
8:40 AM,53.6,51.8,94,30.20,2.5,Calm,Calm,-,N/A,,Overcast,0,2013-09-06 16:40:00
8:48 AM,53.6,51.8,94,30.20,4.0,Calm,Calm,-,N/A,,Overcast,0,2013-09-06 16:48:00
8:53 AM,53.1,51.1,93,30.19,1.8,Calm,Calm,-,0.00,Rain,Light Rain,0,2013-09-06 16:53:00
9:09 AM,53.6,51.8,94,30.19,2.0,Calm,Calm,-,0.01,Rain,Light Rain,0,2013-09-06 17:09:00
9:25 AM,53.6,51.8,94,30.18,4.0,Calm,Calm,-,0.01,,Overcast,0,2013-09-06 17:25:00
9:36 AM,51.8,51.8,100,30.19,1.5,Calm,Calm,-,0.01,,Overcast,0,2013-09-06 17:36:00
9:38 AM,51.8,51.8,100,30.19,0.8,Calm,Calm,-,0.01,,Overcast,0,2013-09-06 17:38:00
9:53 AM,51.1,50.0,96,30.20,0.5,SSW,4.6,-,0.01,Fog,Fog,210,2013-09-06 17:53:00
10:13 AM,51.8,50.0,94,30.19,0.5,Calm,Calm,-,0.00,Fog,Fog,0,2013-09-06 18:13:00
10:28 AM,51.8,51.8,100,30.17,1.5,Calm,Calm,-,0.00,,Overcast,0,2013-09-06 18:28:00
10:30 AM,53.6,51.8,94,30.17,3.0,Calm,Calm,-,0.00,,Overcast,0,2013-09-06 18:30:00
10:53 AM,54.0,52.0,93,30.19,9.0,Calm,Calm,-,0.00,,Overcast,0,2013-09-06 18:53:00
11:09 AM,51.8,51.8,100,30.17,1.0,Calm,Calm,-,N/A,,Overcast,0,2013-09-06 19:09:00
11:12 AM,51.8,51.8,100,30.17,2.5,Calm,Calm,-,N/A,,Overcast,0,2013-09-06 19:12:00
11:32 AM,53.6,51.8,94,30.16,3.0,Calm,Calm,-,N/A,,Overcast,0,2013-09-06 19:32:00
11:53 AM,52.0,51.1,97,30.18,3.0,Calm,Calm,-,N/A,,Overcast,0,2013-09-06 19:53:00
11:55 AM,51.8,50.0,94,30.18,1.5,Calm,Calm,-,N/A,,Overcast,0,2013-09-06 19:55:00
11:58 AM,51.8,50.0,94,30.17,0.8,SW,3.5,-,N/A,,Overcast,220,2013-09-06 19:58:00
12:15 PM,53.6,51.8,94,30.17,0.5,SW,3.5,-,N/A,Fog,Fog,220,2013-09-06 20:15:00
12:21 PM,51.8,51.8,100,30.18,0.2,SSW,4.6,-,N/A,Fog,Fog,200,2013-09-06 20:21:00
12:41 PM,53.6,51.8,94,30.16,1.0,Calm,Calm,-,N/A,,Overcast,0,2013-09-06 20:41:00
12:43 PM,53.6,51.8,94,30.16,3.0,Calm,Calm,-,N/A,,Overcast,0,2013-09-06 20:43:00
12:53 PM,53.1,52.0,96,30.17,2.5,Calm,Calm,-,N/A,,Overcast,0,2013-09-06 20:53:00
1:03 PM,55.4,51.8,88,30.16,5.0,NNE,3.5,-,N/A,,Overcast,20,2013-09-06 21:03:00
1:29 PM,53.6,51.8,94,30.17,1.0,SSW,3.5,-,0.01,,Overcast,210,2013-09-06 21:29:00
1:36 PM,53.6,51.8,94,30.16,0.5,Calm,Calm,-,0.01,Fog-Rain,Light Rain,0,2013-09-06 21:36:00
1:41 PM,53.6,51.8,94,30.16,1.8,Calm,Calm,-,0.01,Rain,Light Rain,0,2013-09-06 21:41:00
1:47 PM,53.6,51.8,94,30.15,0.8,Calm,Calm,-,0.01,,Overcast,0,2013-09-06 21:47:00
1:48 PM,53.1,52.0,96,30.15,0.8,Calm,Calm,-,0.01,,Overcast,0,2013-09-06 21:48:00
2:17 PM,51.8,51.8,100,30.14,0.2,Calm,Calm,-,0.00,Fog,Fog,0,2013-09-06 22:17:00
2:22 PM,51.8,51.8,100,30.14,0.5,Calm,Calm,-,0.00,Fog-Rain,Light Rain,0,2013-09-06 22:22:00
2:28 PM,53.6,51.8,94,30.14,2.0,Calm,Calm,-,0.00,Rain,Light Rain,0,2013-09-06 22:28:00
2:37 PM,55.4,53.6,94,30.14,3.0,Calm,Calm,-,0.00,Rain,Light Rain,0,2013-09-06 22:37:00
2:53 PM,55.0,53.1,93,30.13,4.0,Calm,Calm,-,0.01,Rain,Light Rain,0,2013-09-06 22:53:00
3:25 PM,55.4,53.6,94,30.12,1.8,Calm,Calm,-,N/A,,Overcast,0,2013-09-06 23:25:00
3:33 PM,55.4,53.6,94,30.12,2.0,Calm,Calm,-,0.00,Rain,Light Rain,0,2013-09-06 23:33:00
3:37 PM,55.4,53.6,94,30.11,1.2,Calm,Calm,-,0.00,Rain,Light Rain,0,2013-09-06 23:37:00
3:45 PM,57.2,53.6,88,30.11,1.5,Calm,Calm,-,0.00,,Overcast,0,2013-09-06 23:45:00
3:47 PM,57.2,53.6,88,30.11,3.0,Calm,Calm,-,0.00,,Overcast,0,2013-09-06 23:47:00
3:53 PM,55.9,54.0,93,30.11,10.0,Calm,Calm,-,0.00,,Overcast,0,2013-09-06 23:53:00
4:09 PM,55.4,53.6,94,30.11,10.0,Calm,Calm,-,N/A,,Overcast,0,2013-09-07 00:09:00
4:53 PM,57.0,54.0,89,30.08,10.0,Calm,Calm,-,N/A,,Overcast,0,2013-09-07 00:53:00
5:00 PM,57.2,53.6,88,30.08,10.0,Calm,Calm,-,N/A,,Overcast,0,2013-09-07 01:00:00
5:53 PM,57.9,54.0,87,30.05,10.0,WSW,3.5,-,N/A,,Overcast,240,2013-09-07 01:53:00
6:07 PM,57.2,53.6,88,30.04,10.0,Variable,3.5,18.4,N/A,,Overcast,0,2013-09-07 02:07:00
6:53 PM,57.9,54.0,87,30.02,10.0,North,6.9,-,N/A,,Overcast,360,2013-09-07 02:53:00
7:23 PM,60.8,53.6,77,30.01,10.0,SW,15.0,-,N/A,,Overcast,220,2013-09-07 03:23:00
7:53 PM,61.0,53.1,75,29.99,10.0,SSW,19.6,23.0,N/A,,Overcast,210,2013-09-07 03:53:00
8:53 PM,62.1,53.1,72,29.98,10.0,SSW,15.0,26.5,N/A,,Overcast,210,2013-09-07 04:53:00
9:53 PM,64.0,54.0,70,29.94,10.0,SSW,20.7,28.8,N/A,,Overcast,210,2013-09-07 05:53:00
10:53 PM,63.0,54.0,72,29.93,10.0,SSW,17.3,31.1,0.01,,Overcast,210,2013-09-07 06:53:00
11:53 PM,63.0,53.1,70,29.93,10.0,SSW,23.0,32.2,N/A,,Overcast,200,2013-09-07 07:53:00